FENGYUN 1C DEB

Satellite information

Favourite Embed

Satellite Type and Status

DEBRISIN ORBIT

Key statistics

Satellite FENGYUN 1C DEB at a glance.

Uptime

9553

Days in orbit

Revolutions

≈ 14.2

Per day

Orbit

SSO

Sun Synchronous Orbit

Inclination

99.2

Latest

Satellite identification and parameters

Extended collection of information and parameters for FENGYUN 1C DEB.

Object identification

Identified? True

Debris? True

Object name: FENGYUN 1C DEB

International designator: 1999-025GJ

Object number (NORAD): 29888

Object ID (CCSDS): 29888

Country: PEOPLES REPUBLIC OF CHINA (PRC)

Current information (Y/N): Y

RCS size: SMALL

Orbital parameters

Period: 101.459 minutes

Inclination: 99.1988 deg

SMA: 7205.862 km

Apoapsis: 1027.559 km

Periapsis: 627.896 km

RAAN: 11.7966 deg

Eccentricy: 0.0277318

Argument of periapsis: 123.2037 deg

Mean anomaly: 239.6057 deg

Mean motion: 14.19298725 rev/day

Mean motion (dot): 0.00001276 rev/day2

B* drag term: 0.00043075 1/REarth

Two-line elements (TLE)

Creation date: July 4, 2025, 6:39 p.m.

Reference frame: TEME

Reference center: EARTH

Epoch: July 4, 2025, 11:50 a.m. UTC

TLE line 0: 0 FENGYUN 1C DEB

TLE line 1: 1 29888U 99025GJ 25185.49331133 .00001276 00000-0 43075-3 0 9996

TLE line 2: 2 29888 99.1988 11.7966 0277318 123.2037 239.6057 14.19298725952160

Live tracking on map

Real-time ground track for satellite FENGYUN 1C DEB.

In-orbit conjunctions

A list of the most updated potential collisions computed for object FENGYUN 1C DEB.

Target Orbit TCA Probability of collision Miss distance Type
METEOR 2-11 LEO 2025-02-18 19:40:01 0.0001463054 54.0 (m) PAYLOAD
COSMOS 1226 LEO 2025-01-22 13:01:56 0.01144245 63.0 (m) PAYLOAD
FENGYUN 1C DEB SSO 2024-09-28 05:58:31 0.0005496907 175.0 (m) DEBRIS

Associated space launch

Chinese polar orbiting meteorological satellite

FENGYUN 1C DEB was lifted into orbit during the mission ‘Long March 4B | Feng Yun 1C’, on board a Long March 4B space rocket.

The launch took place on May 10, 1999, 1:33 a.m. from Launch Complex 7.

For more information about the launch, click the button.

Launch to space Long March 4B | Feng Yun 1C
Long March 4B | Feng Yun 1C

Agency: N/A

Status: Launch Successful

Launch date: May 10, 1999, 1:33 a.m. UTC

Rocket: Long March 4B

Launch pad: Launch Complex 7

Location: Taiyuan Satellite Launch Center, People's Republic of China

...

Latest news about this satellite

There are no fresh news available about this satellite. Check back as we update our databases every day.


Newsletter sign-up

Weekly statistics, charts and insights to help you stay on top of the space industry.